LA5PPA-1 Weather Reports


Display with metric or nautical units.
time (UTC)temp
F
wind
direction
speed
MPH
gust
MPH
rain 1hr
in
rain 24hr
in
rain mn
in
humidity
%
barometer
mb
20260903081948 46 293 1.0 10.0 0.00 0.00 0.00 68 1011.3
20260903081847 46 300 0.0 10.0 0.00 0.00 0.00 68 1011.3
20260903081347 46 289 2.0 9.0 0.00 0.00 0.00 68 1011.2
20260903080847 46 317 5.0 9.0 0.00 0.00 0.00 68 1011.2
20260903080347 46 309 4.0 7.0 0.00 0.00 0.00 70 1011.3
20260903075847 45 316 0.0 9.0 0.00 0.00 0.00 70 1011.3
20260903075748 45 306 2.0 11.0 0.00 0.00 0.00 70 1011.5
20260903075347 45 319 4.0 11.0 0.00 0.00 0.00 70 1011.5
20260903074847 44 340 6.0 11.0 0.00 0.00 0.00 72 1011.5
20260903074648 44 293 0.0 11.0 0.00 0.00 0.00 71 1011.5
20260903074347 44 306 2.0 9.0 0.00 0.00 0.00 72 1011.5
20260903073847 44 300 6.0 14.0 0.00 0.00 0.00 73 1011.5
20260903073548 44 299 5.0 10.0 0.00 0.00 0.00 73 1011.6
20260903073347 43 322 5.0 10.0 0.00 0.00 0.00 74 1011.6
20260903072847 43 324 2.0 8.0 0.00 0.00 0.00 73 1011.7
20260903072448 43 307 5.0 9.0 0.00 0.00 0.00 73 1011.8
20260903072347 43 326 5.0 9.0 0.00 0.00 0.00 74 1011.8
20260903071847 43 322 1.0 8.0 0.00 0.00 0.00 75 1011.8
20260903071347 43 309 2.0 9.0 0.00 0.00 0.00 75 1011.8
20260903070847 43 336 4.0 6.0 0.00 0.00 0.00 75 1011.9
20260903070347 43 310 5.0 6.0 0.00 0.00 0.00 74 1011.9
20260903070248 43 323 4.0 6.0 0.00 0.00 0.00 74 1011.9
20260903065847 43 316 0.0 5.0 0.00 0.00 0.00 75 1011.9
20260903065347 43 299 3.0 7.0 0.00 0.00 0.00 74 1011.8
20260903065148 43 275 7.0 7.0 0.00 0.00 0.00 74 1011.9
20260903064847 43 312 0.0 7.0 0.00 0.00 0.00 75 1011.8
20260903064347 42 306 1.0 8.0 0.00 0.00 0.00 75 1011.8
20260903064048 42 291 0.0 7.0 0.00 0.00 0.00 75 1011.7
20260903063847 42 334 0.0 4.0 0.00 0.00 0.00 76 1011.8
20260903063347 42 261 0.0 5.0 0.00 0.00 0.00 76 1011.9
20260903062948 42 277 2.0 7.0 0.00 0.00 0.00 76 1011.8
20260903062847 42 272 2.0 7.0 0.00 0.00 0.00 77 1011.8
20260903062347 42 291 1.0 4.0 0.00 0.00 0.00 78 1011.8
20260903061847 41 282 0.0 4.0 0.00 0.00 0.00 78 1011.8
20260903061347 41 261 0.0 4.0 0.00 0.00 0.00 79 1011.8
20260903060847 41 302 0.0 1.0 0.00 0.00 0.00 80 1012.0
20260903060748 41 281 0.0 0.0 0.00 0.00 0.00 81 1012.0
20260903060347 40 260 0.0 0.0 0.00 0.00 0.00 82 1012.0
20260903055847 40 260 0.0 0.0 0.00 0.00 0.00 82 1012.0
20260903055648 40 260 0.0 0.0 0.00 0.00 0.00 83 1011.9
20260903055347 40 260 0.0 2.0 0.00 0.00 0.00 83 1011.8
20260903054847 40 285 2.0 5.0 0.00 0.00 0.00 83 1011.6
20260903054548 39 322 2.0 3.0 0.00 0.00 0.00 83 1011.7
20260903054347 39 94 0.0 2.0 0.00 0.00 0.00 83 1011.7
20260903053847 39 150 2.0 4.0 0.00 0.00 0.00 83 1011.7
20260903053448 39 136 3.0 4.0 0.00 0.00 0.00 83 1011.7
20260903053347 39 120 2.0 3.0 0.00 0.00 0.00 82 1011.7
20260903052847 40 105 1.0 3.0 0.00 0.00 0.00 82 1011.5
20260903052347 40 293 0.0 2.0 0.00 0.00 0.00 82 1011.3
20260903051847 40 317 2.0 4.0 0.00 0.00 0.00 82 1011.2
20260903051347 40 286 0.0 5.0 0.00 0.00 0.00 82 1011.5
20260903051248 40 330 1.0 5.0 0.00 0.00 0.00 82 1011.5
20260903050847 40 12 0.0 0.0 0.00 0.00 0.00 82 1011.5
20260903050347 40 12 0.0 3.0 0.00 0.00 0.00 82 1011.5
20260903050148 40 291 0.0 3.0 0.00 0.00 0.00 82 1011.3
20260903045847 40 291 0.0 5.0 0.00 0.00 0.00 82 1011.3
20260903045347 40 310 1.0 7.0 0.00 0.00 0.00 82 1011.2
20260903045048 39 324 4.0 8.0 0.00 0.00 0.00 83 1011.2
20260903044847 39 333 5.0 8.0 0.00 0.00 0.00 83 1011.3
20260903044347 39 344 2.0 8.0 0.00 0.00 0.00 83 1011.2
20260903043948 39 229 0.0 8.0 0.00 0.00 0.00 83 1011.2
20260903043847 39 336 1.0 4.0 0.00 0.00 0.00 84 1011.2
20260903043347 39 331 3.0 6.0 0.00 0.00 0.00 84 1011.2
20260903042847 39 317 3.0 4.0 0.00 0.00 0.00 84 1011.3
20260903042347 39 303 0.0 4.0 0.00 0.00 0.00 84 1011.2
20260903041847 39 322 0.0 3.0 0.00 0.00 0.00 84 1011.2
20260903041748 39 330 1.0 3.0 0.00 0.00 0.00 84 1011.3
20260903041347 39 302 0.0 8.0 0.00 0.00 0.00 84 1011.2
20260903040847 39 248 0.0 3.0 0.00 0.00 0.00 85 1011.2
20260903040648 39 340 1.0 5.0 0.00 0.00 0.00 85 1011.1
20260903040347 38 289 1.0 5.0 0.00 0.00 0.00 85 1011.1
20260903035847 39 285 0.0 0.0 0.00 0.00 0.00 84 1011.2
20260903035548 39 285 0.0 1.0 0.00 0.00 0.00 84 1011.1
20260903035347 39 285 0.0 2.0 0.00 0.00 0.00 84 1011.1
20260903034847 39 326 0.0 2.0 0.00 0.00 0.00 84 1011.2
20260903034448 39 288 0.0 3.0 0.00 0.00 0.00 83 1011.2
20260903034347 39 288 0.0 3.0 0.00 0.00 0.00 83 1011.2
20260903033847 40 267 0.0 4.0 0.00 0.00 0.00 83 1011.1
20260903033347 40 351 1.0 4.0 0.00 0.00 0.00 83 1011.1
20260903032847 40 326 0.0 4.0 0.00 0.00 0.00 83 1011.0
20260903032347 40 327 0.0 5.0 0.00 0.00 0.00 83 1011.1
20260903032248 40 282 1.0 8.0 0.00 0.00 0.00 83 1010.9
20260903031847 40 307 1.0 10.0 0.00 0.00 0.00 83 1010.9
20260903031347 40 282 9.0 9.0 0.00 0.00 0.00 84 1010.9
20260903031148 40 315 3.0 13.0 0.00 0.00 0.00 84 1010.9
20260903030847 40 12 1.0 13.0 0.00 0.00 0.00 84 1010.9
20260903030347 40 291 2.0 6.0 0.00 0.00 0.00 84 1010.9
20260903030048 40 279 3.0 9.0 0.00 0.00 0.00 84 1010.9
20260903025847 40 320 4.0 9.0 0.00 0.00 0.00 84 1010.9
20260903025347 40 319 2.0 13.0 0.00 0.00 0.00 85 1011.0
20260903024948 40 313 2.0 13.0 0.00 0.00 0.00 85 1011.0
20260903024847 40 285 1.0 4.0 0.00 0.00 0.00 85 1011.1
20260903024347 40 316 1.0 4.0 0.00 0.00 0.00 85 1011.0
20260903023847 40 327 3.0 3.0 0.00 0.00 0.00 85 1011.1
20260903023347 40 316 1.0 5.0 0.00 0.00 0.00 85 1011.1
20260903022847 40 286 0.0 9.0 0.00 0.00 0.00 85 1011.1
20260903022748 40 322 1.0 9.0 0.00 0.00 0.00 85 1011.1
20260903022347 40 333 1.0 5.0 0.00 0.00 0.00 85 1011.1
20260903021847 39 275 3.0 5.0 0.00 0.00 0.00 86 1011.1
20260903021648 39 315 3.0 6.0 0.00 0.00 0.00 85 1011.1
20260903021347 39 320 4.0 6.0 0.00 0.00 0.00 85 1011.1
20260903020847 39 327 1.0 5.0 0.00 0.00 0.00 85 1011.1
20260903020548 39 309 3.0 5.0 0.00 0.00 0.00 85 1011.1
20260903020347 39 261 2.0 5.0 0.00 0.00 0.00 84 1011.1
20260903015847 39 281 4.0 5.0 0.00 0.00 0.00 84 1011.0
20260903015448 39 320 2.0 5.0 0.00 0.00 0.00 84 1011.0
20260903015347 39 309 2.0 5.0 0.00 0.00 0.00 84 1011.0
20260903014847 40 292 2.0 6.0 0.00 0.00 0.00 84 1011.0
20260903014347 40 282 0.0 7.0 0.00 0.00 0.00 84 1011.1
20260903013847 40 296 1.0 3.0 0.00 0.00 0.00 84 1011.1
20260903013347 40 286 0.0 5.0 0.00 0.00 0.00 83 1011.1
20260903013248 40 286 0.0 5.0 0.00 0.00 0.00 83 1011.2
20260903012848 40 299 1.0 4.0 0.00 0.00 0.00 83 1011.3
20260903012347 40 284 2.0 2.0 0.00 0.00 0.00 83 1011.3
20260903012149 40 278 0.0 2.0 0.00 0.00 0.00 83 1011.3
20260903011848 40 305 0.0 0.0 0.00 0.00 0.00 83 1011.5
20260903011348 40 305 0.0 4.0 0.00 0.00 0.00 83 1011.5
20260903011048 40 201 1.0 4.0 0.00 0.00 0.00 83 1011.5
20260903010848 40 237 0.0 4.0 0.00 0.00 0.00 83 1011.3
20260903010348 40 327 0.0 4.0 0.00 0.00 0.00 83 1011.5
20260903005949 40 306 0.0 3.0 0.00 0.00 0.00 83 1011.5
20260903005848 40 254 0.0 3.0 0.00 0.00 0.00 83 1011.5
20260903005348 40 286 0.0 4.0 0.00 0.00 0.00 83 1011.6
20260903004848 40 288 1.0 4.0 0.00 0.00 0.00 83 1011.6
20260903004348 40 303 2.0 4.0 0.00 0.00 0.00 83 1011.6
20260903003848 40 293 3.0 5.0 0.00 0.00 0.00 83 1011.6
20260903003749 40 330 1.0 5.0 0.00 0.00 0.00 83 1011.6
20260903003348 40 268 1.0 6.0 0.00 0.00 0.00 83 1011.6
20260903002848 40 281 2.0 4.0 0.00 0.00 0.00 83 1011.7
20260903002649 39 149 0.0 2.0 0.00 0.00 0.00 83 1011.6
20260903002348 39 312 0.0 4.0 0.00 0.00 0.00 83 1011.6
20260903001848 39 313 0.0 3.0 0.00 0.00 0.00 83 1011.6
20260903001549 39 262 2.0 5.0 0.00 0.00 0.00 83 1011.6
20260903001348 39 278 0.0 5.0 0.00 0.00 0.00 83 1011.6
20260903000848 39 286 1.0 5.0 0.00 0.00 0.00 83 1011.6
20260903000449 39 288 1.0 7.0 0.00 0.00 0.00 83 1011.6
20260903000348 39 293 0.0 7.0 0.00 0.00 0.00 83 1011.6
20260902235848 39 337 3.0 4.0 0.00 0.00 0.00 83 1011.6
20260902235348 39 310 0.0 6.0 0.00 0.00 0.00 83 1011.6
20260902234848 39 292 4.0 6.0 0.00 0.00 0.00 83 1011.6
20260902234348 39 277 2.0 4.0 0.00 0.00 0.00 83 1011.6
20260902234249 39 310 0.0 4.0 0.00 0.00 0.00 83 1011.6
20260902233848 39 305 1.0 6.0 0.00 0.00 0.00 82 1011.6
20260902233348 39 281 1.0 7.0 0.00 0.00 0.00 82 1011.6
20260902233149 39 316 3.0 8.0 0.00 0.00 0.00 82 1011.7
20260902232848 39 295 2.0 8.0 0.00 0.00 0.00 82 1011.6
20260902232348 39 268 2.0 7.0 0.00 0.00 0.00 82 1011.6
20260902232049 39 316 4.0 7.0 0.00 0.00 0.00 83 1011.6
20260902231848 39 320 0.0 6.0 0.00 0.00 0.00 82 1011.7
20260902231348 39 306 6.0 6.0 0.00 0.00 0.00 81 1011.5
20260902230949 39 291 0.0 9.0 0.00 0.00 0.00 82 1011.5
20260902230848 39 315 3.0 9.0 0.00 0.00 0.00 82 1011.5
20260902230348 39 306 3.0 7.0 0.00 0.00 0.00 81 1011.5
20260902225848 39 243 1.0 9.0 0.00 0.00 0.00 81 1011.6
20260902225348 39 303 4.0 7.0 0.00 0.00 0.00 81 1011.5
20260902224848 39 296 0.0 7.0 0.00 0.00 0.00 80 1011.5
20260902224749 39 275 3.0 7.0 0.00 0.00 0.00 80 1011.5
20260902224348 39 298 2.0 8.0 0.00 0.00 0.00 80 1011.3
20260902223848 39 295 5.0 6.0 0.00 0.00 0.00 80 1011.5
20260902223649 40 326 2.0 6.0 0.00 0.00 0.00 80 1011.5
20260902223348 40 329 1.0 6.0 0.00 0.00 0.00 79 1011.7
20260902222848 40 284 5.0 10.0 0.00 0.00 0.00 79 1011.8
20260902222549 40 293 5.0 9.0 0.00 0.00 0.00 79 1011.7
20260902222348 40 205 3.0 9.0 0.00 0.00 0.00 79 1011.7
20260902221848 40 295 1.0 11.0 0.00 0.00 0.00 79 1011.7
20260902221449 39 9 5.0 9.0 0.00 0.00 0.00 79 1011.7
20260902221348 40 282 6.0 7.0 0.00 0.00 0.00 78 1011.6
20260902220848 40 302 1.0 6.0 0.00 0.00 0.00 77 1011.7
20260902220348 40 307 1.0 8.0 0.00 0.00 0.00 77 1011.7
20260902215848 40 324 0.0 7.0 0.00 0.00 0.00 76 1011.6
20260902215348 40 302 3.0 10.0 0.00 0.00 0.00 76 1011.6
20260902215249 40 323 1.0 10.0 0.00 0.00 0.00 76 1011.6
20260902214848 40 327 5.0 8.0 0.00 0.00 0.00 76 1011.6
20260902214348 40 313 1.0 6.0 0.00 0.00 0.00 76 1011.6
20260902214149 40 306 3.0 9.0 0.00 0.00 0.00 76 1011.7
20260902213848 40 324 3.0 9.0 0.00 0.00 0.00 76 1011.6
20260902213348 40 315 3.0 9.0 0.00 0.00 0.00 76 1011.6
20260902213049 40 309 3.0 9.0 0.00 0.00 0.00 76 1011.7
20260902212848 40 320 6.0 7.0 0.00 0.00 0.00 76 1011.8
20260902212348 40 309 6.0 8.0 0.00 0.00 0.00 75 1011.8
20260902211949 40 320 4.0 12.0 0.00 0.00 0.00 75 1011.8
20260902211848 40 288 2.0 12.0 0.00 0.00 0.00 75 1011.7
20260902211348 40 310 7.0 9.0 0.00 0.00 0.00 75 1011.6
20260902210848 41 282 1.0 10.0 0.00 0.00 0.00 74 1011.6
20260902210348 40 306 5.0 13.0 0.00 0.00 0.00 75 1011.7
20260902205848 40 302 3.0 12.0 0.00 0.00 0.00 75 1011.7
20260902205749 40 319 2.0 12.0 0.00 0.00 0.00 75 1011.7
20260902205348 40 265 5.0 7.0 0.00 0.00 0.00 74 1011.8
20260902204848 40 306 3.0 9.0 0.00 0.00 0.00 74 1011.6
20260902204649 41 296 6.0 9.0 0.00 0.00 0.00 74 1011.7
20260902204348 41 336 6.0 11.0 0.00 0.00 0.00 74 1011.7
20260902203848 41 292 2.0 10.0 0.00 0.00 0.00 73 1011.7
20260902203549 41 337 3.0 13.0 0.00 0.00 0.00 73 1011.7
20260902203348 41 302 6.0 13.0 0.00 0.00 0.00 73 1011.7
20260902202848 41 289 5.0 10.0 0.00 0.00 0.00 73 1011.6
20260902202449 41 284 3.0 11.0 0.00 0.00 0.00 73 1011.6
20260902202348 41 312 6.0 11.0 0.00 0.00 0.00 73 1011.6
20260902201848 41 277 4.0 15.0 0.00 0.00 0.00 73 1011.6
20260902201348 41 302 3.0 12.0 0.00 0.00 0.00 73 1011.7
20260902200848 41 319 7.0 10.0 0.00 0.00 0.00 73 1011.8
20260902200348 41 309 4.0 5.0 0.00 0.00 0.00 73 1011.8
20260902200249 41 323 1.0 4.0 0.00 0.00 0.00 72 1011.8
20260902195848 41 279 0.0 5.0 0.00 0.00 0.00 72 1011.8
20260902195348 41 212 0.0 4.0 0.00 0.00 0.00 72 1011.8
20260902195149 42 310 0.0 4.0 0.00 0.00 0.00 72 1011.9
20260902194848 41 348 0.0 3.0 0.00 0.00 0.00 72 1011.9
20260902194348 41 317 2.0 9.0 0.00 0.00 0.00 72 1011.9
20260902194049 42 329 3.0 9.0 0.00 0.00 0.00 71 1011.9
20260902193848 42 261 0.0 7.0 0.00 0.00 0.00 71 1012.0
20260902193348 42 317 0.0 7.0 0.00 0.00 0.00 71 1011.9
20260902192949 42 319 0.0 5.0 0.00 0.00 0.00 71 1011.9
20260902192848 42 341 1.0 6.0 0.00 0.00 0.00 71 1012.0
20260902192348 42 289 2.0 9.0 0.00 0.00 0.00 70 1012.0
20260902191848 42 286 0.0 7.0 0.00 0.00 0.00 70 1012.0
20260902191348 42 307 3.0 10.0 0.00 0.00 0.00 70 1011.8
20260902190848 42 2 0.0 10.0 0.00 0.00 0.00 70 1011.9
20260902190749 42 309 2.0 9.0 0.00 0.00 0.00 70 1011.9
20260902190348 43 291 6.0 9.0 0.00 0.00 0.00 70 1011.8
20260902185848 43 315 2.0 14.0 0.00 0.00 0.00 70 1011.8
20260902185649 43 307 1.0 14.0 0.00 0.00 0.00 69 1011.8
20260902185348 43 351 0.0 3.0 0.00 0.00 0.00 68 1011.8
20260902184848 43 284 1.0 9.0 0.00 0.00 0.00 68 1011.8
20260902184549 43 315 3.0 10.0 0.00 0.00 0.00 67 1011.7
20260902184348 43 293 4.0 10.0 0.00 0.00 0.00 67 1011.7
20260902183848 43 281 7.0 9.0 0.00 0.00 0.00 67 1011.7
20260902183449 44 319 2.0 6.0 0.00 0.00 0.00 67 1011.7
20260902183348 44 323 0.0 8.0 0.00 0.00 0.00 67 1011.7
20260902182848 44 15 1.0 8.0 0.00 0.00 0.00 66 1011.7
20260902182348 44 316 5.0 11.0 0.00 0.00 0.00 66 1011.6
20260902181848 44 319 4.0 13.0 0.00 0.00 0.00 65 1011.6
20260902181348 44 327 4.0 11.0 0.00 0.00 0.00 65 1011.6
20260902181249 45 327 3.0 11.0 0.00 0.00 0.00 65 1011.5
20260902180848 45 309 4.0 11.0 0.00 0.00 0.00 64 1011.6
20260902180348 45 317 8.0 10.0 0.00 0.00 0.00 63 1011.5
20260902180149 45 333 2.0 8.0 0.00 0.00 0.00 63 1011.5
20260902175848 45 331 6.0 12.0 0.00 0.00 0.00 63 1011.5
20260902175348 46 302 5.0 9.0 0.00 0.00 0.00 63 1011.5
20260902175049 46 271 8.0 13.0 0.00 0.00 0.00 62 1011.6
20260902174848 46 281 5.0 13.0 0.00 0.00 0.00 62 1011.5
20260902174348 46 323 3.0 11.0 0.00 0.00 0.00 60 1011.6
20260902173949 47 302 4.0 11.0 0.00 0.00 0.00 60 1011.6
20260902173848 47 288 5.0 11.0 0.00 0.00 0.00 61 1011.5
20260902173348 47 306 4.0 14.0 0.00 0.00 0.00 60 1011.5
20260902172848 47 292 4.0 13.0 0.00 0.00 0.00 59 1011.5
20260902172348 47 322 5.0 14.0 0.00 0.00 0.00 60 1011.6
20260902171848 48 306 6.0 11.0 0.00 0.00 0.00 59 1011.5
20260902171749 48 286 8.0 12.0 0.00 0.00 0.00 59 1011.5
20260902171348 48 316 5.0 17.0 0.00 0.00 0.00 58 1011.5
20260902170848 48 305 5.0 13.0 0.00 0.00 0.00 58 1011.5
20260902170649 48 305 6.0 13.0 0.00 0.00 0.00 57 1011.5
20260902170348 48 316 10.0 12.0 0.00 0.02 0.00 56 1011.5
20260902165848 48 312 5.0 13.0 0.00 0.02 0.00 56 1011.5
20260902165549 49 248 6.0 9.0 0.00 0.02 0.00 56 1011.6
20260902165348 49 275 9.0 12.0 0.00 0.02 0.00 55 1011.6
20260902164848 49 309 8.0 11.0 0.00 0.02 0.00 54 1011.6
20260902164449 49 289 4.0 14.0 0.00 0.02 0.00 54 1011.6
20260902164348 49 299 5.0 14.0 0.00 0.02 0.00 53 1011.7
20260902163848 49 25 5.0 14.0 0.00 0.02 0.00 53 1011.7
20260902163348 50 310 3.0 12.0 0.00 0.02 0.00 51 1011.6
20260902162848 50 300 5.0 14.0 0.00 0.02 0.00 52 1011.6
20260902162348 50 317 5.0 13.0 0.00 0.02 0.00 51 1011.7
20260902162249 50 291 6.0 13.0 0.00 0.02 0.00 51 1011.6
20260902161848 50 282 7.0 11.0 0.00 0.02 0.00 51 1011.7
20260902161348 50 289 4.0 14.0 0.00 0.02 0.00 51 1011.7
20260902161149 50 307 4.0 11.0 0.00 0.02 0.00 50 1011.7
20260902160848 50 286 9.0 21.0 0.00 0.02 0.00 52 1011.6
20260902160348 51 264 9.0 11.0 0.00 0.02 0.00 51 1011.6
20260902160049 50 293 2.0 9.0 0.00 0.02 0.00 51 1011.6
20260902155848 50 302 5.0 13.0 0.00 0.02 0.00 52 1011.7
20260902155348 50 295 7.0 16.0 0.00 0.02 0.00 49 1011.7
20260902154949 51 309 6.0 11.0 0.00 0.02 0.00 51 1011.6
20260902154848 50 296 5.0 12.0 0.00 0.02 0.00 51 1011.7
20260902154348 51 307 5.0 11.0 0.00 0.02 0.00 52 1011.8
20260902153848 51 316 7.0 14.0 0.00 0.02 0.00 51 1011.9
20260902153348 51 320 5.0 16.0 0.00 0.02 0.00 53 1011.9
20260902152848 51 248 12.0 16.0 0.00 0.02 0.00 51 1011.9
20260902152749 51 307 6.0 16.0 0.00 0.02 0.00 50 1011.9
20260902152348 51 268 9.0 21.0 0.00 0.02 0.00 52 1011.8
20260902151848 51 347 6.0 23.0 0.00 0.02 0.00 50 1011.7
20260902151651 51 298 5.0 18.0 0.00 0.02 0.00 50 1011.6
20260902151348 51 278 4.0 17.0 0.00 0.02 0.00 50 1011.6
20260902150848 52 289 4.0 13.0 0.00 0.02 0.00 49 1011.6
20260902150550 52 258 5.0 11.0 0.00 0.02 0.00 48 1011.6
20260902150348 52 316 5.0 13.0 0.00 0.02 0.00 52 1011.7
20260902145848 51 284 7.0 13.0 0.00 0.02 0.00 50 1011.8
20260902145452 52 327 7.0 16.0 0.00 0.02 0.00 48 1011.7
20260902145348 52 307 10.0 16.0 0.00 0.02 0.00 49 1011.7
20260902144848 52 330 4.0 14.0 0.00 0.02 0.00 50 1011.7
20260902144348 52 291 7.0 13.0 0.00 0.02 0.00 49 1011.7
20260902143848 52 288 7.0 12.0 0.00 0.02 0.00 48 1011.7
20260902143348 53 323 8.0 23.0 0.00 0.02 0.00 50 1011.7
20260902143249 53 312 4.0 23.0 0.00 0.02 0.00 50 1011.7
20260902142848 53 303 3.0 15.0 0.00 0.02 0.00 50 1011.6
20260902142348 52 281 4.0 14.0 0.00 0.02 0.00 51 1011.7
20260902142150 52 320 4.0 11.0 0.00 0.02 0.00 51 1011.7
20260902141848 52 5 3.0 13.0 0.00 0.02 0.00 54 1011.7
20260902141348 52 320 5.0 14.0 0.00 0.02 0.00 51 1011.7
20260902141049 52 286 5.0 14.0 0.00 0.02 0.00 51 1011.7
20260902140848 52 313 4.0 12.0 0.00 0.02 0.00 50 1011.7
20260902140348 53 312 4.0 15.0 0.00 0.02 0.00 51 1011.7
20260902135950 53 293 7.0 15.0 0.00 0.02 0.00 53 1011.7
20260902135848 53 320 6.0 13.0 0.00 0.02 0.00 52 1011.7
20260902135348 53 296 4.0 16.0 0.00 0.02 0.00 53 1011.7
20260902134848 53 271 5.0 9.0 0.00 0.02 0.00 53 1011.6
20260902134348 52 307 5.0 19.0 0.00 0.02 0.00 52 1011.6
20260902133848 53 258 9.0 12.0 0.00 0.02 0.00 53 1011.6
20260902133750 53 310 6.0 12.0 0.00 0.02 0.00 52 1011.6
20260902133348 53 184 8.0 17.0 0.00 0.02 0.00 51 1011.6
20260902132848 53 248 4.0 11.0 0.00 0.02 0.00 54 1011.5
20260902132650 52 254 8.0 11.0 0.00 0.02 0.00 53 1011.5
20260902132348 52 334 5.0 12.0 0.00 0.02 0.00 51 1011.5
20260902131848 53 296 5.0 11.0 0.00 0.02 0.00 53 1011.3
20260902131550 53 315 4.0 9.0 0.00 0.02 0.00 52 1011.3
20260902131348 52 312 3.0 11.0 0.00 0.02 0.00 53 1011.5
20260902130848 52 315 3.0 9.0 0.00 0.02 0.00 54 1011.3
20260902130450 52 293 6.0 11.0 0.00 0.02 0.00 53 1011.5
20260902130349 52 336 1.0 11.0 0.00 0.02 0.00 52 1011.3
20260902125848 53 329 8.0 11.0 0.00 0.02 0.00 50 1011.5
20260902125349 55 9 8.0 16.0 0.00 0.02 0.00 51 1011.3
20260902124849 54 279 8.0 21.0 0.00 0.02 0.00 49 1011.2
20260902124349 55 324 4.0 12.0 0.00 0.02 0.00 49 1011.2
20260902124250 55 253 3.0 13.0 0.00 0.02 0.00 49 1011.2
20260902123849 54 320 6.0 13.0 0.00 0.02 0.00 48 1011.2
20260902123349 54 309 10.0 15.0 0.00 0.02 0.00 50 1011.2
20260902123150 54 265 5.0 13.0 0.00 0.02 0.00 51 1011.2
20260902122849 53 286 8.0 13.0 0.00 0.02 0.00 49 1011.2
20260902122349 53 281 12.0 18.0 0.00 0.02 0.00 50 1011.3
20260902122050 52 302 4.0 15.0 0.00 0.02 0.00 53 1011.2
20260902121849 52 264 9.0 16.0 0.00 0.02 0.00 54 1011.2
20260902121349 51 324 5.0 11.0 0.00 0.02 0.00 51 1011.2
20260902120952 51 284 8.0 11.0 0.00 0.02 0.00 52 1011.3
20260902120849 51 333 6.0 11.0 0.00 0.02 0.00 52 1011.3
20260902120349 52 291 3.0 12.0 0.00 0.02 0.00 53 1011.3
20260902115849 53 313 7.0 9.0 0.00 0.02 0.00 51 1011.2
20260902115349 52 277 3.0 15.0 0.00 0.02 0.00 53 1011.2
20260902114849 52 310 3.0 13.0 0.00 0.02 0.00 52 1011.3
20260902114750 52 286 4.0 9.0 0.00 0.02 0.00 53 1011.2
20260902114349 52 274 8.0 10.0 0.00 0.02 0.00 54 1011.2
20260902113849 51 310 4.0 11.0 0.00 0.02 0.00 53 1011.2
20260902113650 51 306 0.0 15.0 0.00 0.02 0.00 54 1011.2
20260902113349 51 305 1.0 15.0 0.00 0.02 0.00 53 1011.2
20260902112849 52 262 8.0 16.0 0.00 0.02 0.00 52 1011.2
20260902112550 51 293 7.0 11.0 0.00 0.02 0.00 53 1011.3
20260902112349 51 260 7.0 12.0 0.00 0.02 0.00 56 1011.2
20260902111849 51 316 5.0 13.0 0.00 0.02 0.00 54 1011.2
20260902111450 51 312 4.0 13.0 0.00 0.02 0.00 52 1011.2
20260902111349 51 324 4.0 10.0 0.00 0.02 0.00 55 1011.3
20260902110849 51 255 1.0 9.0 0.00 0.02 0.00 55 1011.2
20260902110349 51 313 5.0 12.0 0.00 0.02 0.00 52 1011.2
20260902105849 52 255 6.0 11.0 0.00 0.02 0.00 54 1011.1
20260902105349 52 299 3.0 10.0 0.00 0.02 0.00 52 1011.2
20260902105250 52 233 6.0 10.0 0.00 0.02 0.00 51 1011.2
20260902104849 52 299 2.0 11.0 0.00 0.02 0.00 54 1011.2
20260902104349 52 306 8.0 13.0 0.00 0.02 0.00 53 1011.2
20260902104150 52 262 5.0 13.0 0.00 0.02 0.00 53 1011.1
20260902103849 52 307 6.0 9.0 0.00 0.02 0.00 53 1011.0
20260902103349 51 300 6.0 12.0 0.00 0.02 0.00 55 1011.0
20260902103052 51 319 8.0 12.0 0.00 0.02 0.00 55 1011.1
20260902102849 51 289 6.0 10.0 0.00 0.02 0.00 54 1011.0
20260902102349 51 310 5.0 9.0 0.00 0.02 0.00 55 1011.2
20260902101950 51 278 3.0 19.0 0.00 0.02 0.00 55 1011.1
20260902101849 50 274 4.0 19.0 0.00 0.02 0.00 54 1011.1
20260902101349 50 250 4.0 14.0 0.00 0.02 0.00 55 1011.1
20260902100849 50 310 7.0 14.0 0.00 0.02 0.00 57 1011.1
20260902100349 50 251 3.0 13.0 0.00 0.02 0.00 56 1011.2
20260902095849 49 298 5.0 16.0 0.00 0.02 0.00 56 1011.0
20260902095750 49 264 11.0 16.0 0.00 0.02 0.00 56 1011.0
20260902095349 49 229 11.0 13.0 0.00 0.02 0.00 61 1011.0
20260902094849 48 295 4.0 19.0 0.00 0.02 0.00 61 1011.2
20260902094650 48 275 5.0 19.0 0.00 0.02 0.00 60 1011.3
20260902094349 48 282 8.0 11.0 0.00 0.02 0.00 63 1011.5
20260902093849 49 306 5.0 11.0 0.00 0.02 0.00 62 1011.3
20260902093550 49 295 3.0 8.0 0.00 0.02 0.00 63 1011.3
20260902093349 49 305 3.0 8.0 0.00 0.02 0.00 64 1011.3
20260902092849 48 319 4.0 10.0 0.00 0.02 0.00 66 1011.5
20260902092450 48 278 9.0 11.0 0.00 0.02 0.00 66 1011.2
20260902092349 48 292 7.0 12.0 0.00 0.02 0.00 66 1011.2
20260902091849 48 303 7.0 13.0 0.00 0.02 0.00 66 1011.1
20260902091349 47 296 5.0 12.0 0.00 0.02 0.00 66 1011.1
20260902090849 47 300 7.0 12.0 0.00 0.02 0.00 66 1011.2
20260902090349 48 281 6.0 11.0 0.00 0.02 0.00 68 1011.5
20260902090250 48 306 2.0 11.0 0.00 0.02 0.00 67 1011.5
20260902085849 48 323 5.0 14.0 0.00 0.02 0.00 66 1011.5
20260902085349 48 313 11.0 13.0 0.00 0.02 0.00 64 1011.5
20260902085150 48 302 3.0 13.0 0.00 0.02 0.00 64 1011.3
20260902084849 48 330 3.0 15.0 0.00 0.02 0.00 67 1011.3
20260902084349 48 309 14.0 14.0 0.00 0.02 0.00 66 1011.3
20260902084050 48 288 4.0 10.0 0.00 0.02 0.00 63 1011.2
20260902083849 48 303 7.0 10.0 0.00 0.02 0.00 64 1011.3
20260902083349 48 289 3.0 9.0 0.00 0.02 0.00 65 1011.2
20260902082950 47 296 2.0 9.0 0.00 0.02 0.00 65 1011.3
20260902082849 47 296 4.0 9.0 0.00 0.02 0.00 64 1011.3
20260902082349 47 302 3.0 11.0 0.00 0.02 0.00 65 1011.2